Wind_Speed
12 13 13 14 15 14 13 14 14 12 14 14 17 17 20 21 21 18 19 18 18 19 19 17 16 21 21 20 17 25 29 27 17 27 26 31 30 27 29 24 28 31 30
12 12 13 14 14 13 14 14 14 13 14 17 19 20 23 23 22 20 21 21 21 24 23 20 21 23 21 21 21 20 18 24 26 15 25 30 32 31 29 30 26 28 32
11 11 12 13 14 14 15 14 14 16 17 19 22 24 25 25 24 21 21 22 23 24 25 24 26 28 26 25 21 19 20 21 23 25 23 24 27 28 30 31 29 29 27
10 11 12 13 13 13 13 14 15 15 18 20 21 23 25 26 26 23 22 22 22 24 26 26 29 34 30 28 22 20 20 21 22 21 20 23 25 26 30 27 21 26 27
10 10 12 12 12 12 13 14 14 17 18 18 20 23 23 29 32 26 21 22 24 26 28 28 29 33 30 27 25 24 23 20 18 18 15 20 21 18 21 25 28 27 30
10 10 11 12 13 13 14 15 15 15 18 18 20 21 27 29 32 26 22 21 23 25 28 27 28 35 36 29 26 23 23 23 20 14 13 14 19 24 28 27 29 21 10
10 10 11 11 12 13 13 14 15 16 17 18 21 21 25 31 33 28 23 21 22 24 28 31 31 35 39 32 29 29 27 26 25 19 19 19 21 23 27 28 24 25 24
11 12 12 11 12 12 15 16 16 15 17 19 20 22 23 31 32 30 21 19 20 23 26 31 30 33 37 32 27 27 27 30 31 26 22 22 24 25 26 27 32 34 28
11 11 12 12 13 14 15 16 16 16 17 19 20 22 24 26 32 32 22 20 21 22 23 27 33 32 35 34 30 29 28 32 31 28 27 30 32 32 30 27 22 20 3
10 10 11 13 14 15 14 15 15 14 16 16 19 21 22 25 30 32 28 21 21 21 21 23 30 31 32 34 32 31 30 31 33 34 35 35 35 37 35 31 25 16 11
10 11 12 12 13 13 13 14 14 16 16 18 17 20 22 24 27 30 31 25 21 20 21 23 27 30 29 32 31 33 30 26 29 28 28 31 32 34 36 37 30 20 16
9 10 12 11 12 13 13 14 16 16 17 16 17 18 21 22 26 27 27 26 22 20 22 21 23 27 27 30 33 32 31 29 29 29 29 31 33 35 38 38 34 22 22
9 10 10 10 11 12 14 14 15 16 16 17 17 18 19 22 22 24 24 23 23 19 19 21 22 24 27 28 32 32 32 33 31 31 30 30 32 33 31 35 31 34 25
8 8 8 9 10 12 12 14 16 16 15 16 16 18 18 20 23 24 23 22 20 20 18 21 22 23 25 27 30 33 33 31 29 29 29 30 31 33 32 32 30 31 21
8 7 6 7 8 10 13 14 13 15 15 15 15 14 18 20 22 20 24 25 22 20 20 23 28 30 30 31 30 30 31 32 32 30 30 31 31 31 32 32 29 25 22
7 6 6 7 7 7 6 8 12 11 13 14 16 16 14 17 19 17 17 22 22 21 22 24 26 27 28 29 30 31 31 32 32 30 29 30 30 29 31 30 29 28 23
8 7 7 6 7 7 6 6 5 6 8 11 13 13 14 14 17 19 17 16 21 21 23 23 24 25 26 27 29 29 30 31 30 29 29 30 31 30 30 28 28 27 27
10 9 8 8 7 6 6 5 5 5 6 7 6 10 13 13 15 18 19 16 19 22 22 22 23 23 24 26 27 28 29 30 30 30 29 30 30 29 29 29 28 28 28
10 8 8 7 6 4 4 4 5 5 6 8 9 11 12 11 11 14 17 18 18 19 20 20 21 22 23 24 25 26 27 28 30 30 30 30 29 29 28 29 28 29 27
9 8 6 5 3 3 4 5 5 6 6 7 9 12 13 12 13 15 16 17 17 17 18 19 19 20 21 22 24 25 26 27 29 30 30 31 30 28 27 28 28 28 27
7 5 5 4 3 3 4 5 5 5 6 6 7 10 12 11 13 14 15 15 16 17 17 17 18 18 19 20 21 22 23 24 26 27 28 29 30 29 29 27 26 26 26
5 4 4 4 3 3 4 4 5 5 6 6 7 8 10 10 11 12 13 14 14 14 15 16 16 17 18 19 20 20 21 22 23 25 27 28 28 27 29 27 26 25 25
5 4 4 4 3 4 4 5 5 5 6 6 7 8 10 11 11 12 12 13 14 14 15 15 15 16 17 18 17 18 19 20 21 21 24 25 27 27 27 26 26 25 25
5 4 4 4 3 4 4 4 4 5 5 6 6 7 9 10 11 12 13 13 14 14 14 15 15 16 18 19 17 17 18 19 20 19 20 21 24 26 26 26 25 24 25
5 5 4 4 3 3 3 3 3 4 4 5 6 7 9 9 10 12 12 13 14 15 15 15 14 17 18 19 17 20 21 20 19 19 18 18 21 24 24 24 24 24 23
6 5 4 4 3 3 3 2 3 3 4 5 6 7 8 9 10 11 12 13 15 15 15 15 16 18 19 17 19 22 22 21 19 19 19 16 19 22 23 24 23 22 21
Wind_Direction
21 24 26 22 27 18 17 19 24 18 20 16 17 13 11 9 7 5 2 359 355 351 348 341 336 333 328 310 310 266 264 253 256 255 257 257 265 262 254 245 243 242 241
27 29 27 28 31 21 24 24 28 27 25 29 26 23 19 18 17 17 13 9 10 7 2 3 358 349 341 335 328 309 324 269 257 264 262 262 258 259 257 250 238 237 237
39 37 36 32 30 24 21 24 25 26 27 28 28 25 22 21 20 21 21 18 19 15 12 9 3 359 353 346 340 335 327 316 313 258 247 251 255 255 256 252 247 240 240
43 38 38 32 27 28 22 23 27 26 30 30 30 29 26 23 21 20 23 24 26 22 18 15 9 6 0 357 354 354 345 337 330 311 302 260 254 252 247 248 239 235 237
48 42 39 34 33 31 31 30 29 33 32 31 31 32 29 27 21 20 22 25 26 24 23 19 13 9 8 10 11 6 4 358 349 333 316 329 265 237 239 238 238 238 238
55 49 44 39 38 34 34 36 33 33 33 32 33 32 30 26 20 21 25 26 27 25 22 17 15 13 10 10 17 20 24 16 7 349 348 345 319 339 325 254 234 229 229
64 54 48 46 44 40 38 42 39 38 36 34 35 33 33 25 19 21 24 26 27 25 23 19 14 13 13 9 9 16 23 28 27 12 354 353 332 336 324 311 285 225 231
72 62 56 52 51 44 41 41 38 36 39 37 34 31 32 25 20 20 24 27 27 27 26 21 19 14 14 12 13 13 11 14 17 15 9 356 349 342 335 316 296 286 240
73 64 56 52 50 44 42 39 38 38 37 37 36 32 30 25 21 21 26 27 20 25 23 23 20 17 13 16 17 12 9 8 7 7 9 14 14 9 357 355 350 324 239
77 69 60 53 51 49 46 43 41 44 43 39 37 32 29 25 21 24 25 26 23 21 20 20 20 20 18 18 20 15 10 1 1 1 5 9 9 6 5 7 352 336 311
86 74 66 60 55 53 53 48 45 45 44 39 36 32 29 23 22 23 24 26 22 20 19 16 14 16 18 21 24 21 13 5 5 6 4 1 0 2 359 1 360 3 338
90 76 66 60 58 54 52 48 45 42 40 35 31 30 26 21 19 18 21 23 25 27 21 14 11 14 17 21 21 17 17 17 12 9 7 3 357 355 354 352 358 15 22
97 86 73 63 60 57 53 48 43 40 37 31 28 27 23 19 16 15 15 15 21 25 21 17 16 17 20 21 19 19 19 16 12 10 3 358 354 346 353 356 355 2 12
104 92 82 70 62 55 54 51 46 38 34 33 28 24 21 20 18 17 17 19 19 22 18 18 19 21 22 20 18 18 18 15 12 8 359 355 354 355 356 359 354 354 351
105 99 91 79 71 67 59 51 51 47 43 38 32 31 24 23 16 18 23 21 19 18 20 22 21 19 17 16 16 15 14 11 8 4 2 358 357 354 355 355 355 355 359
113 100 86 80 71 64 72 77 60 62 52 49 44 39 33 28 18 17 18 23 23 23 27 26 23 20 18 14 12 10 10 9 5 2 1 360 356 352 352 352 356 355 355
116 108 98 86 75 70 62 54 55 60 58 52 40 36 32 25 22 19 15 16 22 23 29 25 22 18 15 14 11 9 7 5 2 2 1 357 355 351 353 353 355 354 350
110 105 102 89 80 72 62 49 34 21 9 14 26 15 11 11 16 16 14 14 18 22 23 20 17 14 12 11 9 7 4 3 3 1 359 356 354 350 351 352 352 352 347
112 105 97 88 78 70 50 32 11 6 8 5 2 3 359 355 8 13 14 17 14 15 13 12 11 8 7 5 4 4 3 2 1 359 358 355 353 349 349 347 347 347 347
108 108 98 88 70 44 35 24 15 11 11 11 11 3 356 4 11 12 12 11 9 7 4 3 2 1 360 358 357 357 357 359 360 358 356 352 350 347 347 343 344 344 343
120 113 106 89 71 48 45 33 19 14 12 12 13 4 7 11 13 11 8 6 3 359 357 355 353 353 352 351 350 349 349 350 353 353 353 350 348 345 344 340 339 340 339
123 118 111 104 85 62 49 40 30 19 12 10 5 2 11 19 14 7 3 359 354 351 349 347 345 345 346 344 343 342 341 341 344 346 346 346 345 344 342 338 337 336 337
130 127 118 104 91 78 56 47 34 20 7 7 6 7 14 16 8 1 358 352 348 346 344 343 341 338 337 336 336 334 335 337 334 333 337 339 340 343 339 337 333 333 333
136 136 129 116 104 82 69 51 30 18 12 6 9 11 14 9 358 355 353 346 345 345 342 343 341 337 337 336 336 329 325 324 328 326 326 331 334 338 337 336 332 331 326
138 135 128 123 106 92 73 50 31 16 8 5 5 8 8 358 350 351 345 341 339 340 339 341 337 334 335 337 336 331 329 328 327 327 322 323 329 333 334 333 332 329 326
137 134 133 128 119 100 78 49 28 9 359 0 3 3 355 348 345 343 337 336 336 337 335 334 332 334 337 340 330 335 335 332 329 329 325 319 327 332 333 331 332 329 328
Height
817 813 811 810 805 806 805 801 796 797 793 790 783 779 774 769 763 760 756 751 748 745 740 735 732 727 721 715 710 708 704 702 696 694 694 696 694 693 692 693 695 697 697
817 815 813 811 809 811 807 804 801 798 795 788 784 780 775 770 766 761 758 754 748 744 741 737 733 727 720 714 708 703 699 696 692 689 690 690 689 689 688 688 688 689 690
819 818 816 815 812 812 809 806 803 799 794 790 785 781 777 773 768 764 760 756 751 747 742 739 735 728 721 714 708 702 698 693 689 684 681 683 683 683 681 679 680 680 681
820 820 817 817 815 812 811 809 805 802 796 792 789 785 782 777 771 766 762 760 756 752 747 742 736 729 723 716 709 704 698 694 688 683 676 673 675 673 673 672 673 673 673
821 821 819 818 817 815 813 811 807 803 800 798 793 789 786 780 774 771 767 764 758 754 749 745 742 738 729 721 714 707 702 698 693 688 682 675 666 666 665 665 664 665 664
823 823 821 821 819 817 814 811 810 807 804 802 798 793 789 783 779 775 772 768 763 759 754 751 746 738 731 725 719 715 710 703 699 696 692 685 679 672 667 657 656 656 657
826 825 824 823 822 820 819 816 813 810 807 806 801 798 793 789 783 777 774 772 768 764 759 753 748 743 734 728 723 717 713 708 704 700 697 693 688 681 676 662 651 642 644
828 827 826 826 825 823 820 817 816 814 810 808 805 802 796 793 789 783 779 776 775 769 765 761 755 750 743 737 729 722 717 711 704 703 701 696 691 683 677 664 651 644 636
829 829 828 827 825 823 822 820 818 816 814 811 808 805 801 798 795 788 782 778 778 772 769 766 761 754 749 741 733 726 720 714 708 704 700 693 686 681 675 661 652 648 628
831 830 830 829 828 827 825 823 823 821 818 816 813 811 808 804 801 792 786 782 779 776 774 771 766 760 754 746 738 731 725 720 712 703 697 691 687 683 677 669 661 651 642
832 832 832 832 831 830 829 828 825 823 822 820 818 814 811 809 803 797 792 787 784 781 778 774 769 764 759 753 746 739 734 726 718 711 704 698 691 684 678 671 666 658 650
833 833 833 834 833 832 831 829 827 826 825 823 822 820 816 813 808 803 799 795 790 786 783 780 775 768 763 755 749 744 736 729 724 716 710 704 697 689 681 675 669 660 651
834 835 835 836 835 834 833 831 829 828 828 828 825 822 820 817 813 808 803 799 794 791 788 784 779 773 765 759 754 748 741 735 729 723 719 714 707 701 689 681 672 662 656
834 835 836 837 837 836 834 834 834 833 831 830 828 826 824 821 817 812 808 803 799 795 791 787 781 776 770 765 758 752 748 745 741 736 729 722 714 705 696 687 680 671 664
835 836 837 838 838 838 838 838 838 839 838 835 832 830 828 825 823 819 814 808 804 800 794 788 782 776 771 767 764 760 756 751 746 741 735 727 719 713 705 697 689 681 673
836 838 839 839 840 840 840 841 842 842 841 839 836 834 832 831 827 823 819 814 808 802 797 792 788 784 780 775 771 766 762 758 754 747 741 735 728 721 713 705 697 689 680
838 840 841 842 842 842 843 843 842 843 841 841 840 838 836 833 829 825 821 816 811 805 801 798 795 791 787 783 779 774 768 765 760 754 747 740 734 727 719 712 704 696 687
840 841 843 843 845 845 846 846 846 844 842 841 839 839 837 834 830 827 823 818 813 809 806 802 799 796 792 788 784 780 775 770 764 758 752 747 740 732 724 717 710 703 695
842 843 844 845 847 847 847 846 846 844 842 841 840 839 837 834 831 828 825 821 817 813 810 807 804 800 797 793 789 785 780 775 770 763 757 752 746 739 731 724 716 709 701
843 844 845 846 848 848 847 846 846 845 843 842 842 841 838 833 830 828 826 824 821 818 816 812 808 805 801 797 793 788 783 778 773 768 763 757 751 744 736 729 721 714 706
844 846 846 847 848 848 847 848 848 847 846 844 843 843 840 835 833 830 829 827 824 822 819 815 811 808 804 800 796 792 787 783 778 774 768 762 755 747 741 735 728 720 712
845 846 847 848 849 849 849 848 848 848 847 845 844 843 840 837 835 833 831 829 827 825 821 818 814 810 807 803 799 795 790 785 781 777 772 766 759 752 746 738 731 724 718
846 847 848 849 850 849 849 849 849 848 848 847 845 843 840 837 836 835 832 830 828 825 821 818 814 810 807 804 800 796 792 787 784 779 774 768 762 755 750 743 736 729 723
847 848 848 849 850 849 849 849 849 849 848 847 845 843 840 838 837 834 832 830 827 823 820 816 813 810 806 802 799 796 792 788 784 779 775 770 763 758 751 745 739 733 725
846 847 848 849 849 849 849 849 849 849 848 847 844 842 839 838 837 834 832 830 826 822 819 816 812 809 804 800 797 792 787 783 780 777 773 769 763 758 753 747 741 734 727
846 847 848 848 849 849 849 849 849 848 847 846 843 841 839 838 836 833 831 829 824 821 818 814 811 806 801 798 794 788 784 780 777 774 771 767 762 758 752 747 741 735 728